Weather History for Whitefield, NH

Change the Weather History Date:

Saturday, November 3, 2012

  Actual Average Record
Temperature  
Mean Temperature 38 °F -  
Max Temperature 39 °F 44 °F 66 °F (1999)
Min Temperature 37 °F 26 °F 0 °F (2002)
Degree Days  
Heating Degree Days 27    
Moisture  
Dew Point 33 °F    
Average Humidity 81    
Maximum Humidity 89    
Minimum Humidity 73    
Precipitation  
Precipitation 0.06 in - - ()
Sea Level Pressure  
Sea Level Pressure 29.75 in    
Wind  
Wind Speed 4 mph (WSW)    
Max Wind Speed 9 mph    
Max Gust Speed -    
Visibility 10 miles    
Events Rain    
Averages and records for this station are not official NWS values.
T = Trace of Precipitation, MM = Missing Value Source: NWS Daily Summary

Daily Weather History Graph

Daily Weather History Graph

Search for Another Location

Airport:

Trip Planner

Search our weather history database for the weather conditions in past years. The results will help you decide how hot, cold, wet, or windy it might be!

Date:

Astronomy

Nov. 03, 2012 Rise Set
Actual Time 7:26 AM EDT 5:32 PM EDT
Civil Twilight 6:56 AM EDT 6:02 PM EDT
Nautical Twilight 6:21 AM EDT 6:37 PM EDT
Astronomical Twilight 5:47 AM EDT 7:10 PM EDT
Moon 9:06 PM EDT (11/3) 11:32 AM EDT (11/3)
Length of Visible Light 11h 06m
Length of Day
10h 05m
Waning Gibbous, 80% of the Moon is Illuminated
Nov 3
Waning Gibbous
Nov 6
Last Quarter
Nov 13
New
Nov 20
First Quarter
Nov 28
Full

Hourly Weather History & Observations

Time (EDT) Temp. Windchill Dew Point Humidity Pressure Visibility Wind Dir Wind Speed Gust Speed Precip Events Conditions
1:52 AM 39.9 °F 37.8 °F 33.1 °F 77% 29.64 in 10.0 mi West 3.5 mph - N/A   Overcast
2:52 AM 39.9 °F - 34.0 °F 79% 29.65 in 10.0 mi Calm Calm - 0.00 in   Overcast
3:52 AM 39.9 °F 37.8 °F 34.0 °F 79% 29.65 in 10.0 mi WSW 3.5 mph - 0.00 in Rain Light Rain
4:52 AM 37.9 °F 35.5 °F 35.1 °F 89% 29.66 in 10.0 mi SSW 3.5 mph - 0.02 in Rain Light Rain
5:52 AM 39.0 °F 36.8 °F 36.0 °F 89% 29.68 in 10.0 mi SSW 3.5 mph - 0.01 in   Overcast
6:52 AM 39.0 °F 35.7 °F 35.1 °F 86% 29.68 in 10.0 mi WSW 4.6 mph - N/A   Overcast
7:52 AM 39.0 °F 35.7 °F 34.0 °F 82% 29.71 in 10.0 mi WSW 4.6 mph - N/A   Overcast
8:52 AM 39.0 °F 35.7 °F 33.1 °F 79% 29.73 in 10.0 mi WNW 4.6 mph - 0.00 in   Overcast
9:52 AM 39.0 °F 35.7 °F 32.0 °F 76% 29.75 in 10.0 mi WSW 4.6 mph - N/A   Overcast
10:52 AM 39.0 °F 36.8 °F 32.0 °F 76% 29.76 in 10.0 mi Variable 3.5 mph - N/A   Overcast
11:52 AM 39.0 °F 36.8 °F 33.1 °F 79% 29.76 in 10.0 mi WSW 3.5 mph - N/A   Overcast
12:52 PM 39.0 °F - 34.0 °F 82% 29.75 in 10.0 mi Calm Calm - 0.00 in Rain Light Rain
1:52 PM 39.0 °F 32.8 °F 33.1 °F 79% 29.75 in 10.0 mi West 9.2 mph - 0.00 in Rain Light Rain
2:52 PM 39.9 °F 35.8 °F 32.0 °F 73% 29.75 in 10.0 mi WNW 5.8 mph - 0.00 in   Overcast
3:03 PM 39.2 °F 37.0 °F 33.8 °F 81% 29.72 in 10.0 mi WNW 3.5 mph - N/A   Overcast
3:52 PM 39.0 °F 34.8 °F 32.0 °F 76% 29.76 in 10.0 mi West 5.8 mph - 0.01 in   Overcast
4:52 PM 39.9 °F 35.8 °F 32.0 °F 73% 29.77 in 10.0 mi WSW 5.8 mph - N/A   Overcast
5:52 PM 39.0 °F 35.7 °F 30.9 °F 73% 29.78 in 10.0 mi WNW 4.6 mph - N/A   Overcast
6:52 PM 39.0 °F 34.0 °F 30.9 °F 73% 29.80 in 10.0 mi West 6.9 mph - N/A   Overcast
7:52 PM 37.9 °F 34.4 °F 32.0 °F 79% 29.81 in 10.0 mi West 4.6 mph - 0.00 in Rain Light Rain
8:11 PM 37.4 °F 33.8 °F 33.8 °F 87% 29.78 in 10.0 mi WSW 4.6 mph - 0.00 in Rain Light Rain
8:47 PM 37.4 °F 33.8 °F 33.8 °F 87% 29.78 in 10.0 mi SW 4.6 mph - 0.00 in   Overcast
8:52 PM 37.0 °F 34.5 °F 33.1 °F 86% 29.82 in 10.0 mi SSW 3.5 mph - 0.00 in   Overcast
9:52 PM 37.0 °F 32.4 °F 34.0 °F 89% 29.83 in 10.0 mi SSW 5.8 mph - 0.00 in   Overcast
10:52 PM 37.0 °F 33.3 °F 34.0 °F 89% 29.84 in 10.0 mi WSW 4.6 mph - 0.01 in Rain Light Rain
11:11 PM 37.4 °F 34.9 °F 33.8 °F 87% 29.80 in 10.0 mi SW 3.5 mph - 0.00 in Rain Light Rain
11:52 PM 37.0 °F 34.5 °F 34.0 °F 89% 29.84 in 8.0 mi SSW 3.5 mph - 0.01 in Rain Light Rain